Overview Statistics Trail Chart Weather Telemetry Raw packets
 

This is the latest recevied weather packets stored in our database for station/object R2AJV-13. If no packets are shown the sender has not sent any weather packets the latest 10 day(s).

<< 1 2 3 4 5 6 7 >>
Time Temp. Humidity Pressure Rain* Wind** Luminosity Snow
1788641125 10.56° C 98% 985.2 hPa 0 mm - - -
1788640275 11.11° C 98% 985.2 hPa 0 mm - - -
1788639366 11.11° C 97% 985 hPa 0 mm - - -
1788638453 11.67° C 97% 984.9 hPa 0 mm - - -
1788637543 11.67° C 96% 984.8 hPa 0 mm - - -
1788636639 12.22° C 95% 984.8 hPa 0 mm - - -
1788635728 12.22° C 95% 984.6 hPa 0 mm - - -
1788633967 12.78° C 95% 984.2 hPa 0 mm - - -
1788633063 12.78° C 95% 983.9 hPa 0 mm - - -
1788632151 12.78° C 96% 983.7 hPa 0 mm - - -
1788631240 13.33° C 97% 983.4 hPa 0 mm - - -
1788630330 13.33° C 97% 983.2 hPa 0 mm - - -
1788629419 13.33° C 97% 982.8 hPa 0 mm - - -
1788628576 13.33° C 97% 982.6 hPa 0 mm - - -
1788627938 13.33° C 98% 982.5 hPa 0 mm - - -
1788627028 12.78° C 97% 982.3 hPa 0 mm - - -
1788626117 12.78° C 98% 982 hPa 0 mm - - -
1788625272 12.78° C 98% 981.8 hPa 0 mm - - -
1788624362 12.78° C 98% 981.8 hPa 0.25 mm - - -
1788623451 12.78° C 97% 981.5 hPa 0.25 mm - - -
1788622540 12.78° C 97% 981.4 hPa 0.25 mm - - -
1788621635 13.33° C 97% 981.1 hPa 0.25 mm - - -
1788620724 13.89° C 92% 980.8 hPa 0 mm - - -
1788619874 14.44° C 91% 980.5 hPa 0 mm - - -
1788618994 15° C 90% 980.2 hPa 0 mm - - -

* Rain latest hour (hover to see other rain measurements)
** Current wind speed in m/s (hover to see current wind gust speed)